Printer-friendly version

IAU Minor Planet Center

Minor Planet Center

MPEC 2004-X67 : 2004 XJ35

The following Minor Planet Electronic Circular may be linked-to from your own Web pages, but must not otherwise be redistributed electronically.


Read MPEC 2004-X66 Read MPEC 2004-X68


M.P.E.C. 2004-X67                                Issued 2004 Dec. 13, 12:56 UT

     The Minor Planet Electronic Circulars contain information on unusual
         minor planets and routine data on comets.  They are published
   on behalf of Commission 20 of the International Astronomical Union by the
          Minor Planet Center, Smithsonian Astrophysical Observatory,
                          Cambridge, MA 02138, U.S.A.

                  Supported in part by the Brinson Foundation
             Prepared using the Tamkin Foundation Computer Network

                              MPC@CFA.HARVARD.EDU
          URL http://cfa-www.harvard.edu/iau/mpc.html  ISSN 1523-6714

                                   2004 XJ35

Observations:
     K04X35J* C2004 12 10.46134 07 47 39.58 +28 20 57.0          19.9 V EX067691
     K04X35J  C2004 12 10.49583 07 47 41.74 +28 21 39.9          20.0 V EX067691
     K04X35J  C2004 12 10.52373 07 47 43.53 +28 22 14.7          20.5 V EX067691
     K04X35J  C2004 12 10.99995 07 48 18.86 +28 32 14.4                 EX067246
     K04X35J  C2004 12 11.00102 07 48 18.90 +28 32 17.1                 EX067246
     K04X35J  C2004 12 11.00190 07 48 19.04 +28 32 18.6                 EX067246
     K04X35J  C2004 12 11.00269 07 48 19.11 +28 32 19.2                 EX067246
     K04X35J  C2004 12 11.00443 07 48 19.24 +28 32 22.4                 EX067246
     K04X35J  C2004 12 11.30423 07 48 40.31 +28 38 48.0          19.7 R EX067734
     K04X35J  C2004 12 11.31278 07 48 40.81 +28 38 59.6          19.9 R EX067734
     K04X35J HC2004 12 11.52334 07 48 53.85 +28 43 30.5          20.5 V EX067291
     K04X35J HC2004 12 11.52824 07 48 54.19 +28 43 36.7          20.3 V EX067291
     K04X35J HC2004 12 11.53326 07 48 54.39 +28 43 43.0          20.3 V EX067291
     K04X35J  C2004 12 12.04806 07 49 30.64 +28 54 38.4                 EX067246
     K04X35J  C2004 12 12.04906 07 49 30.70 +28 54 40.8                 EX067246
     K04X35J  C2004 12 12.04985 07 49 30.77 +28 54 41.4                 EX067246
     K04X35J  C2004 12 12.05084 07 49 30.81 +28 54 42.9                 EX067246
     K04X35J  C2004 12 12.05168 07 49 30.91 +28 54 43.9                 EX067246
     K04X35J  C2004 12 12.05269 07 49 30.94 +28 54 44.7                 EX067246
     K04X35J  C2004 12 12.49010 07 49 59.04 +29 04 12.5          19.7 V EX067291
     K04X35J  C2004 12 12.49586 07 49 59.36 +29 04 19.6          19.7 V EX067291
     K04X35J  C2004 12 12.50127 07 49 59.67 +29 04 26.5          19.6 V EX067291
     K04X35J  C2004 12 13.34046 07 50 54.96 +29 22 28.7          19.6 R EX067651
     K04X35J  C2004 12 13.34313 07 50 55.10 +29 22 32.3          19.4 R EX067651
     K04X35J  C2004 12 13.34791 07 50 55.32 +29 22 38.5          19.2 R EX067651
     K04X35J  C2004 12 13.36056 07 50 55.62 +29 22 51.7          19.2 R EX067734
     K04X35J  C2004 12 13.36340 07 50 55.80 +29 22 55.5          19.3 R EX067734
     K04X35J  C2004 12 13.36625 07 50 55.87 +29 22 58.6          19.6 R EX067734

Observer details:
246 Klet Observatory-KLENOT.  Observers J. Ticha, M. Tichy, M. Kocer.
    Measurer M. Tichy.  1.06-m KLENOT Telescope + CCD.
291 LPL/Spacewatch II.  Observer M. Block.  1.8-m f/2.7 reflector + CCD.
651 Grasslands Observatory, Tucson.  Observer J. E. McGaha.  0.62-m f/5.1
    Newtonian reflector + CCD.
691 Steward Observatory, Kitt Peak.  Observer J. V. Scotti.  0.9-m f/3
    reflector + CCD.
734 Farpoint Observatory.  Observer G. Hug.  0.4-m f/6 Schmidt-Cassegrain
    + CCD.

Orbital elements:
2004 XJ35
Epoch 2004 Dec. 1.0 TT = JDT 2453340.5                  MPC
M   0.12599              (2000.0)            P               Q
n   0.31450997     Peri.    7.23201     +0.17056868     -0.97697066
a   2.1414755      Node    73.01028     +0.89719203     +0.10019950
e   0.3950002      Incl.    7.70357     +0.40737304     +0.18838362
P   3.13           H   20.4           G   0.15
From 28 observations 2004 Dec. 10-13.

Ephemeris:
2004 XJ35                a,e,i = 2.14, 0.40, 8                   q = 1.2956
Date    TT    R. A. (2000) Decl.     Delta      r     Elong.  Phase     V
2004 12 11    07 48.31   +28 32.4    0.364    1.299   144.8    25.9    20.0
2004 12 21    07 57.26   +32 07.2    0.357    1.310   152.2    20.5    19.8
2004 12 31    08 00.80   +35 27.5    0.362    1.327   158.8    15.5    19.7
2005 01 10    08 00.03   +38 05.7    0.380    1.350   162.3    12.8    19.7
2005 01 20    07 57.43   +39 41.9    0.412    1.379   160.3    13.9    20.0
2005 01 30    07 55.86   +40 12.9    0.458    1.412   154.6    17.4    20.4
2005 02 09    07 57.15   +39 49.0    0.517    1.450   147.6    21.4    20.8
2005 02 19    08 02.14   +38 44.6    0.589    1.491   140.6    24.9    21.3
2005 03 01    08 10.61   +37 13.5    0.673    1.535   133.7    27.8    21.7

Timothy B. Spahr             (C) Copyright 2004 MPC           M.P.E.C. 2004-X67

Read MPEC 2004-X66 Read MPEC 2004-X68


Our Web policy. Index to the CBAT/MPC/ICQ pages.


Valid HTML 4.01!